Fall Classic Futurity - 50 miles

Station: North Branch, MN - T Race

Distance: 50 Miles

Release: 09-Sep-2017 09:00

Weather Release:    Arrival:

Wind at Release:     Wind at Arrival:

Temp at Release: °    Temp at Arrival: °

Lofts: 54

Birds: 193

Clocked: 124

Good Luck to Everyone!
Drops Pos Breeder Pigeon Name Color Sex Ent Arrival Speed To Win Eligible
1 Cherokee Loft - MI 0155-AU17-CHER BB H 1 09:53:04.00 1658.291 00:00:00 Yes
1 Midwest Loft Peter - WI 0661-AU17-MIDW Deeps Direct BC H 1 09:53:04.00 1658.291 00:00:00 Yes
3 Breeder Unassigned - OR 0096-AU17-LUCK BB C 1 09:53:06.00 1657.250 00:00:02 Yes
4 Gary Johnson - WI 6204-AU17-RCR BBPD H 1 09:53:07.00 1656.730 00:00:03 Yes
4 Gary Johnson - WI 6205-AU17-RCR BB H 2 09:53:07.00 1656.730 00:00:03 Yes
6 Ed Brockman - MN 6228-AU17-AA BB H 1 09:53:09.00 1655.691 00:00:05 Yes
7 Sandstrom Brothers Loft - MN 0745-AU17-SBL BCWF H 1 09:53:10.00 1655.172 00:00:06 Yes
8 Laemele Loft - MN 0753-AU17-UNIT BCWF H 1 09:53:11.00 1654.654 00:00:07 Yes
9 Midwest Loft Peter - WI 0699-AU17-MIDW Off Deep 35 BC H 2 09:53:13.00 1653.617 00:00:09 Yes
9 Sandstrom Brothers Loft - MN 0738-AU17-SBL BBWF H 2 09:53:13.00 1653.617 00:00:09 Yes
11 Bourgoin - MN 0076-AU17-BOUR Horse Power BB H 1 09:53:14.00 1653.100 00:00:10 Yes
12 Homestead Loft - WI 0505-AU17-NWM BB H 1 09:53:15.00 1652.582 00:00:11 Yes
13 Avens Loft - MN 0078-AU17-UNIT BC H 1 09:53:17.00 1651.548 00:00:13 Yes
13 Rocky Coulee Loft - WI 6310-AU17-RCR BCPD H 1 09:53:17.00 1651.548 00:00:13 Yes
15 Rocky Coulee Loft - WI 6303-AU17-RCR DKCH H 2 09:53:18.00 1651.032 00:00:14 Yes
15 Avens Loft - MN 0600-AU17-UNIT SLAT H 2 09:53:18.00 1651.032 00:00:14 Yes
17 The Flying Ariolas - WI 0033-AU17-NWM BC H 1 09:53:20.00 1650.000 00:00:16 Yes
17 Cherokee Loft - MI 0153-AU17-CHER BB H 2 09:53:20.00 1650.000 00:00:16 Yes
19 Bourgoin Family Lofts - MN 0066-AU17-BOUR Ricky Bobby RC H 1 09:53:21.00 1649.485 00:00:17 Yes
20 Silver Loft - MN 0707-AU17-UNIT BBWF H 1 09:53:22.00 1648.969 00:00:18 Yes
21 Cherokee Loft - MI 0154-AU17-CHER BB H 3 09:53:26.00 1646.912 00:00:22 Yes
22 Chris Holden - WI 6544-AU17-RCR BB H 1 09:53:28.00 1645.885 00:00:24 Yes
22 Reignfire Loft - MN 12850-AU17-ARPU Luna BB H 1 09:53:28.00 1645.885 00:00:24 Yes
24 Dank Loft - MN 4803-AU17-MM BB H 1 09:53:30.00 1644.860 00:00:26 Yes
25 Larry Jensen - IA 0164-AU17-SCIA DC H 1 09:53:32.00 1643.836 00:00:28 Yes
26 Ranger Loft - MN 0043-AU17-UNIT BB H 1 09:53:35.00 1642.302 00:00:31 Yes
27 Ranger Loft - MN 0038-AU17-UNIT BC H 2 09:53:37.00 1641.281 00:00:33 Yes
27 Wup Flyers - WI 17192-AU17-RAG "Dutchman's pick" CHWF H 1 09:53:37.00 1641.281 00:00:33 Yes
27 Wup Flyers - WI 1606-AU17-NFL Nielsen Express BC H 2 09:53:37.00 1641.281 00:00:33 Yes
30 Cherry Hill Loft - MN 5639-AU17-MM BB H 1 09:53:40.00 1639.752 00:00:36 Yes
31 Money Loft - MN 11957-AU17-ARPU Miss Washington BBWF H 1 09:53:41.00 1639.242 00:00:37 Yes
32 Bourgoin Family Lofts - MN 0069-AU17-BOUR Triple Power BC H 2 09:53:43.00 1638.225 00:00:39 Yes
32 Money Loft - MN 11960-AU17-ARPU Purple Gus PEN H 2 09:53:43.00 1638.225 00:00:39 Yes
34 Sandstrom Brothers Loft - MN 0739-AU17-SBL BCWF H 3 09:53:46.00 1636.702 00:00:42 Yes
35 Shamrock Loft - MI 0448-AU17-NWM BB H 1 09:53:47.00 1636.195 00:00:43 Yes
36 Silver Loft - MN 0711-AU17-UNIT BBWF H 2 09:53:49.00 1635.181 00:00:45 Yes
37 Roonies No1 Loft - WI 2261-AU17-WRP GRIZ H 1 09:53:53.00 1633.158 00:00:49 Yes
38 Gary Johnson - WI 6206-AU17-RCR GRIZ H 3 09:53:54.00 1632.653 00:00:50 Yes
39 Break-A-Way Loft - WI 0844-AU17-BAWL BC H 1 09:53:55.00 1632.148 00:00:51 Yes
40 Silver Loft - MN 0717-AU17-UNIT BLK H 3 09:53:56.00 1631.644 00:00:52 Yes
41 Ander Yen - IL 7211-AU17-SIRP BC H 1 09:53:57.00 1631.140 00:00:53 Yes
41 Sweetbiznas Loft - IA 0074-AU17-PROS BC H 1 09:53:57.00 1631.140 00:00:53 Yes
43 Eaton Family Loft - MN 0134-AU17-TSR BB H 1 09:53:58.00 1630.636 00:00:54 Yes
44 Scotts Loft - IN 2333-AU17-IND BB H 1 09:53:59.00 1630.133 00:00:55 Yes
45 Money Loft - MN 11964-AU17-ARPU My name is Jeff BB H 3 09:54:00.00 1629.630 00:00:56 Yes
45 Wings On Fire - MN 9860-AU17-JEDD BC H 1 09:54:00.00 1629.630 00:00:56 Yes
45 Laemele Loft - MN 0769-AU17-UNIT BB H 2 09:54:00.00 1629.630 00:00:56 Yes
48 Wup Flyers - WI 1601-AU17-NFL Wild Billy DC H 3 09:54:02.00 1628.624 00:00:58 Yes
48 Reignfire Loft - MN 12877-AU17-ARPU Zaaj Dlawb BB H 2 09:54:02.00 1628.624 00:00:58 Yes
50 Nikolays Loft - MN 47160-AU17-ARPU BB H 1 09:54:05.00 1627.119 00:01:01 Yes
50 Silver Loft - MN 0718-AU17-UNIT BLK H 4 09:54:05.00 1627.119 00:01:01 Yes
52 Hoffman Loft - MN 4213-AU17-MM WGRZ H 1 09:54:08.00 1625.616 00:01:04 Yes
53 Rocky Coulee Loft - WI 6312-AU17-RCR DKCH H 3 09:54:10.00 1624.615 00:01:06 Yes
54 Bandido Loft - MN 1760-AU17-RVR DKCH H 1 09:54:13.00 1623.117 00:01:09 Yes
55 Money Loft - MN 11946-AU17-ARPU FiFi BB H 4 09:54:14.00 1622.618 00:01:10 Yes
56 Bourgoin Family Lofts - MN 0064-AU17-BOUR Ghost Recon SILV H 3 09:54:15.00 1622.120 00:01:11 Yes
57 Reignfire Loft - MN 12631-AU17-ARPU Allen BC H 3 09:54:16.00 1621.622 00:01:12 Yes
58 Bourgoin Family Lofts - MN 0065-AU17-BOUR Avatar SILV H 4 09:54:17.00 1621.124 00:01:13 Yes
59 Lucky Ali - MN 69084-AU17-ARPU BB H 1 09:54:18.00 1620.626 00:01:14 Yes
60 Bandido Loft - MN 1714-AU17-RVR BBWF H 2 09:54:20.00 1619.632 00:01:16 Yes
60 Chris Holden - WI 6502-AU17-RCR SILV H 2 09:54:20.00 1619.632 00:01:16 Yes
62 Goodfeathers - MN 0738-AU17-MPC BBWF H 1 09:54:21.00 1619.135 00:01:17 Yes
63 Reignfire Loft - MN 12851-AU17-ARPU Jafong BCWF H 4 09:54:22.00 1618.639 00:01:18 Yes
64 Bandido Loft - MN 1700-AU17-RVR BC H 3 09:54:23.00 1618.143 00:01:19 Yes
65 Money Loft - MN 11970-AU17-ARPU Double Crazy Al BC H 5 09:54:24.00 1617.647 00:01:20 Yes
66 Silver Loft - MN 0709-AU17-UNIT BCPD H 5 09:54:25.00 1617.152 00:01:21 Yes
67 Staker - MN 0206-AU17-TSR DCWP H 1 09:54:26.00 1616.656 00:01:22 Yes
68 Sandstrom Brothers Loft - MN 0742-AU17-SBL BC H 4 09:54:27.00 1616.162 00:01:23 Yes
69 Break-A-Way Loft - WI 0843-AU17-BAWL BBWF H 2 09:54:29.00 1615.173 00:01:25 Yes
70 Camntx.Combo - MN 0080-AU17-EISN JD 5935 + LF 0340 BC H 1 09:54:32.00 1613.692 00:01:28 Yes
70 Bandido Loft - MN 1766-AU17-RVR BC H 4 09:54:32.00 1613.692 00:01:28 Yes
72 Goodfeathers - MN 0729-AU17-MPC BB H 2 09:54:33.00 1613.199 00:01:29 Yes
73 Avens Loft - MN 0561-AU17-UNIT BB H 3 09:54:34.00 1612.706 00:01:30 Yes
73 Midwest Loft Peter - WI 0397-AU17-ROYL SKYS BEST BB H 3 09:54:34.00 1612.706 00:01:30 Yes
75 Bourgoin - MN 0074-AU17-BOUR Julius DC H 2 09:54:35.00 1612.214 00:01:31 Yes
76 Shamrock Loft - MI 0444-AU17-NWM BC H 2 09:54:36.00 1611.722 00:01:32 Yes
77 Mesopotamia Loft - MN 5323-AU17-VITA BB H 1 09:54:38.00 1610.738 00:01:34 Yes
78 Breeder Unassigned - OR 69086-AU17-ARPU BBWF C 2 09:54:43.00 1608.285 00:01:39 Yes
79 Bourgoin - MN 0073-AU17-BOUR Maximus BC H 3 09:54:44.00 1607.795 00:01:40 Yes
80 T J & T - MN 5551-AU17-MM BB H 1 09:54:45.00 1607.306 00:01:41 Yes
81 Larry Jensen - IA 0165-AU17-SCIA DC H 2 09:54:47.00 1606.328 00:01:43 Yes
82 Avens Loft - MN 0560-AU17-UNIT BB H 4 09:54:48.00 1605.839 00:01:44 Yes
83 Ranger Loft - MN 0041-AU17-UNIT BC H 3 09:54:56.00 1601.942 00:01:52 Yes
84 Meadowlands Mafia - MN 5996-AU17-VITA Donny Jo BC H 1 09:55:02.00 1599.031 00:01:58 Yes
85 Eng Loft - MN 0017-AU17-ENG LastSon x DeArden64 BB H 1 09:55:05.00 1597.579 00:02:01 Yes
86 Mark Huebsch - MN 23313-AU17-AA PEN H 1 09:55:07.00 1596.613 00:02:03 Yes
86 Scotts Loft - IN 2330-AU17-IND BB H 2 09:55:07.00 1596.613 00:02:03 Yes
88 Sandstrom Brothers Loft - MN 0743-AU17-SBL BBWF H 5 09:55:11.00 1594.684 00:02:07 Yes
89 Chris Holden - WI 6549-AU17-RCR BC H 3 09:55:13.00 1593.722 00:02:09 Yes
90 Nikolays Loft - MN 47158-AU17-ARPU BB H 2 09:55:14.00 1593.241 00:02:10 Yes
90 Laemele Loft - MN 0776-AU17-UNIT BBWF H 3 09:55:14.00 1593.241 00:02:10 Yes
92 Wild Wings Loft - MA 9006-AU17-JEDD Potus BB H 1 09:55:18.00 1591.320 00:02:14 Yes
93 Bourgoin - MN 0088-AU17-BOUR The Dark Ace DCWF H 4 09:55:19.00 1590.841 00:02:15 Yes
94 Reignfire Loft - MN 12839-AU17-ARPU Convict BB H 5 09:55:21.00 1589.883 00:02:17 Yes
95 Meadowlands Mafia - MN 0043-AU17-TSR Gandalf BBWF H 2 09:55:33.00 1584.158 00:02:29 Yes
96 Bourgoin - MN 0079-AU17-BOUR Inbred Bolt/Birdy BC H 5 09:56:18.00 1563.055 00:03:14 Yes
97 Larry Jensen - IA 0162-AU17-SCIA BC H 3 09:56:35.00 1555.228 00:03:31 Yes
98 Minnesoldier Loft - WI 64057-AU17-ARPU Ashley BC H 1 09:56:43.00 1551.572 00:03:39 Yes
99 Sweetbiznas Loft - IA 0771-AU17-NEI BC H 2 09:56:51.00 1547.933 00:03:47 Yes
100 Cherokee Loft - MI 0150-AU17-CHER BBWF H 4 09:56:54.00 1546.573 00:03:50 Yes

There are 193 bird records

Note: These Race Results are unofficial and subject to change until verified by the Race Committee and declared final.

;